Back to catalog

FENGYUN 1C DEB

AliveSSO
NORAD 31368·DEBRIS·🇨🇳 China

Launched May 10, 1999 from Taiyuan Satellite Launch Center

Loading…

Next Passes (next 24 hours)

TLE

AgingSource: Space-Track

Epoch: Sep 7, 2026, 08:25 UTC

1 31368U 99025BRY 26250.35091643  .00000787  00000-0  35117-3 0  9994
2 31368  99.1290  90.3257 0044056 240.4905 119.1876 14.25311215682882

Track FENGYUN 1C DEB in real time with AllMySat

Download on the App Store